Printer-friendly version
Follow the MPC on Twitter Follow the MPC on Facebook The MPC blog
Minor Planet Center

MPEC 2006-J02 : 2006 HV57

The following Minor Planet Electronic Circular may be linked-to from your own Web pages, but must not otherwise be redistributed electronically.

A form allowing access to any MPEC is at the bottom of this page.


Read MPEC 2006-J01 Read MPEC 2006-J03


M.P.E.C. 2006-J02                                Issued 2006 May 1, 16:52 UT

     The Minor Planet Electronic Circulars contain information on unusual
         minor planets and routine data on comets.  They are published
   on behalf of Commission 20 of the International Astronomical Union by the
          Minor Planet Center, Smithsonian Astrophysical Observatory,
                          Cambridge, MA 02138, U.S.A.

                  Supported in part by the Brinson Foundation
                  Supported in part by the TABASGO Foundation
             Prepared using the Tamkin Foundation Computer Network

                              MPC@CFA.HARVARD.EDU
          URL http://cfa-www.harvard.edu/iau/mpc.html  ISSN 1523-6714

                                   2006 HV57

Observations:
     K06H57V* C2006 04 29.54897 12 37 04.72 -18 11 31.1          19.1 V EJ002E12
     K06H57V  C2006 04 29.55861 12 37 04.08 -18 11 24.3          19.2 V EJ002E12
     K06H57V  C2006 04 29.56832 12 37 03.39 -18 11 18.4          19.2 V EJ002E12
     K06H57V  C2006 04 29.62877 12 36 59.22 -18 10 39.7          19.4 V EJ002E12
     K06H57V  C2006 04 29.63069 12 36 59.10 -18 10 39.1          18.8 V EJ002E12
     K06H57V  C2006 04 29.63262 12 36 58.98 -18 10 36.8          19.1 V EJ002E12
     K06H57V  C2006 04 29.63455 12 36 58.83 -18 10 36.6          19.1 V EJ002E12
     K06H57V  C2006 04 29.63785 12 36 58.68 -18 10 34.2          19.2 V EJ002E12
     K06H57V  C2006 04 29.64921 12 36 57.88 -18 10 27.1          19.4 V EJ002E12
     K06H57V  C2006 04 29.66056 12 36 57.06 -18 10 19.2          19.5 V EJ002E12
     K06H57V  C2006 04 29.67185 12 36 56.30 -18 10 11.7          19.8 V EJ002E12
     K06H57V  C2006 04 29.93726 12 36 40.08 -18 07 45.5          19.5 R EJ002J87
     K06H57V  C2006 04 29.94839 12 36 39.40 -18 07 36.4          19.4 R EJ002J87
     K06H57V  C2006 04 29.95971 12 36 38.64 -18 07 30.3                 EJ002J87
     K06H57V 5C2006 04 30.18449 12 36 24.84 -18 05 07.3          19.5 R EJ002673
     K06H57V 5C2006 04 30.19109 12 36 24.41 -18 05 03.5                 EJ002673
     K06H57V 5C2006 04 30.19803 12 36 23.92 -18 04 59.2                 EJ002673
     K06H57V  C2006 04 30.20195 12 36 23.43 -18 04 55.6          19.0   EJ002704
     K06H57V 5C2006 04 30.20313 12 36 23.53 -18 04 55.7                 EJ002673
     K06H57V  C2006 04 30.20351 12 36 23.47 -18 04 55.7          19.3 V EJ002703
     K06H57V  C2006 04 30.21052 12 36 22.96 -18 04 51.7          18.7 V EJ002703
     K06H57V  C2006 04 30.21263 12 36 22.73 -18 04 49.8          19.5   EJ002704
     K06H57V 5C2006 04 30.21719 12 36 22.57 -18 04 47.2          18.7 R EJ002673
     K06H57V  C2006 04 30.21756 12 36 22.50 -18 04 45.8          19.0 V EJ002703
     K06H57V  C2006 04 30.22332 12 36 22.07 -18 04 42.8          19.2   EJ002704
     K06H57V 5C2006 04 30.22413 12 36 22.11 -18 04 42.7                 EJ002673
     K06H57V  C2006 04 30.22456 12 36 21.92 -18 04 41.4          18.9 V EJ002703
     K06H57V 5C2006 04 30.23108 12 36 21.68 -18 04 38.8                 EJ002673
     K06H57V  C2006 04 30.23398 12 36 21.28 -18 04 36.4          19.0   EJ002704
     K06H57V  C2006 04 30.25144 12 36 20.10 -18 04 24.7          19.5   EJ002701
     K06H57V  C2006 04 30.27221 12 36 18.67 -18 04 11.4          19.6   EJ002701
     K06H57V  C2006 04 30.29306 12 36 17.24 -18 03 58.3          20.0   EJ002701
     K06H57V 4C2006 04 30.29353 12 36 17.96 -18 03 56.0          19.2 R EJ002F65
     K06H57V 4C2006 04 30.30131 12 36 17.43 -18 03 51.3          19.1 R EJ002F65
     K06H57V 4C2006 04 30.30875 12 36 16.92 -18 03 46.7                 EJ002F65
     K06H57V  C2006 04 30.31389 12 36 15.86 -18 03 46.2          20.8   EJ002701
     K06H57V  C2006 04 30.34243 12 36 13.98 -18 03 26.8          19.3 R EJ002854
     K06H57V  C2006 04 30.34677 12 36 13.57 -18 03 24.0          19.2 R EJ002854
     K06H57V  C2006 04 30.35061 12 36 13.34 -18 03 22.2          19.2 R EJ002854
     K06H57V  C2006 04 30.39722 12 36 11.30 -18 02 35.0          17.9 R EJ002474
     K06H57V  C2006 04 30.40116 12 36 11.04 -18 02 32.4          17.9 R EJ002474
     K06H57V  C2006 04 30.40475 12 36 10.79 -18 02 30.3          18.0 R EJ002474
     K06H57V  C2006 05 01.18050 12 35 22.60 -17 54 33.6          19.0 R EJ002854
     K06H57V  C2006 05 01.18625 12 35 22.18 -17 54 29.6          18.8 R EJ002854
     K06H57V  C2006 05 01.19029 12 35 21.62 -17 54 28.0          19.0 R EJ002H36
     K06H57V  C2006 05 01.19200 12 35 21.84 -17 54 25.9          18.8 R EJ002854
     K06H57V  C2006 05 01.20726 12 35 20.57 -17 54 17.3          18.9 R EJ002H36
     K06H57V  C2006 05 01.20778 12 35 20.73 -17 54 16.6          19.4 V EJ002703
     K06H57V  C2006 05 01.21627 12 35 20.23 -17 54 10.2          19.3 V EJ002703
     K06H57V 5C2006 05 01.21944 12 35 20.12 -17 54 08.9          19.3 R EJ002673
     K06H57V 5C2006 05 01.22141 12 35 19.98 -17 54 07.9                 EJ002673
     K06H57V  C2006 05 01.22476 12 35 19.62 -17 54 06.1          19.0 V EJ002703
     K06H57V 5C2006 05 01.22674 12 35 19.62 -17 54 04.7                 EJ002673
     K06H57V  C2006 05 01.23323 12 35 19.06 -17 53 59.6          18.8 V EJ002703
     K06H57V 5C2006 05 01.23368 12 35 19.15 -17 54 00.0                 EJ002673

Observer details:
474 Mount John Observatory, Lake Tekapo.  Observer A. C. Gilmore.  1.0-m f/7.7
    reflector + CCD.
673 Table Mountain Observatory, Wrightwood.  Observers J. Young, D. Mayes.
    0.4-m f/8.4 Cassegrain + CCD, 0.6-m f/16 Cassegrain + CCD.
701 Junk Bond Observatory, Sierra Vista.  Observer D. Healy.  0.81-m f/4.4
    Ritchey-Chretien + CCD.
703 Catalina Sky Survey.  Observer R. A. Kowalski.  Measurers E. C. Beshore,
    E. J. Christensen, G. J. Garradd, A. R. Gibbs, A. D. Grauer, R. E. Hill,
    R. A. Kowalski, S. M. Larson, R. H. McNaught.  0.68-m Schmidt + CCD.
704 Lincoln Laboratory ETS, New Mexico.  Observers M. Bezpalko, L. Manguso,
    D. Torres, R. Kracke, M. Blythe, H. Love, G. Spitz.  Measurers J. Stuart,
    J. Kommers.  1.0-m f/2.15 reflector + CCD.
854 Sabino Canyon Observatory, Tucson.  Observer J. E. McGaha.  0.36-m f/10.0
    Schmidt-Cassegrain + CCD.
E12 Siding Spring Survey.  Observer R. H. McNaught.  Measurers E. C. Beshore,
    E. J. Christensen, G. J. Garradd, A. R. Gibbs, A. D. Grauer, R. E. Hill,
    R. A. Kowalski, S. M. Larson, R. H. McNaught.  0.5-m Uppsala Schmidt + CCD.
F65 Haleakala-Faulkes Telescope North.  Observer J. Bedient.  2.0-m
    Ritchey-Chretien + CCD.
H36 Sandlot Observatory, Scranton.  Observer G. Hug.  0.30-m
    Schmidt-Cassegrain + CCD.
J87 La Canada.  Observer J. Lacruz.  0.30-m Schmidt-Cassegrain + CCD.

Orbital elements:
2006 HV57                                                Earth MOID = 0.1431 AU
Epoch 2006 Mar. 6.0 TT = JDT 2453800.5                  MPC
M 331.75601              (2000.0)            P               Q
n   0.19812876     Peri.   17.98297     +0.20454100     +0.97316597
a   2.9140994      Node   263.92093     -0.91060072     +0.14966406
e   0.6033204      Incl.    6.08505     -0.35912297     +0.17478174
P   4.97           H   18.5           G   0.15           U   8
Residuals in seconds of arc
060429 E12  0.3-  0.6-    060430 703  0.8+  0.3-    060430 854  0.5-  0.8-
060429 E12  0.2+  0.1+    060430 703  0.4+  0.7-    060430 474  0.0   0.2-
060429 E12  0.1-  0.1-    060430 704  0.1+  0.1+    060430 474  0.1+  0.1-
060429 E12  0.1-  0.1+    060430 673  0.1-  0.1-    060430 474  0.0   0.3-
060429 E12  0.0   0.5-    060430 703  0.8+  0.8+    060501 854  0.2+  0.1-
060429 E12  0.2+  0.5+    060430 704  1.2+  0.4+    060501 854  0.3-  0.2+
060429 E12  0.1-  0.5-    060430 673  0.1+  0.0     060501 H36  1.1-  0.3+
060429 E12  1.0+  0.2-    060430 703  0.6-  0.8+    060501 854  0.3+  0.2+
060429 E12  0.5+  0.4-    060430 673  0.8+  0.5-    060501 H36  0.0   0.1+
060429 E12  0.2-  0.2+    060430 704  0.3+  0.0     060501 703  0.4-  0.5-
060429 E12  0.3-  0.4+    060430 701  0.1-  0.3+    060501 703  0.6+  0.4+
060429 J87  0.8-  1.4-    060430 701  0.2-  0.4+    060501 673  0.6+  0.0
060429 J87  0.4+  0.7+    060430 701  0.2-  0.1+    060501 673  0.5+  0.3-
060429 J87  0.6+  0.3-    060430 F65  0.0   0.1+    060501 703  0.1+  0.9-
060430 673  0.4+  0.2+    060430 F65  0.0   0.0     060501 673  0.4+  0.5-
060430 673  0.7+  0.1-    060430 F65  0.1+  0.0     060501 703  0.2+  0.1+
060430 673  0.4+  0.2-    060430 701  0.3+  1.2-    060501 673  0.4+  0.2-
060430 704  0.4-  1.0+    060430 854  0.8+  0.1-
060430 673  0.1-  0.2+    060430 854  0.9-  0.1-

Ephemeris:
2006 HV57                a,e,i = 2.91, 0.60, 6                   q = 1.1560
Date    TT    R. A. (2000) Decl.     Delta      r     Elong.  Phase     V
2006 04 25    12 42.17   -18 56.3    0.609    1.588   158.3    13.6    19.2
2006 05 05    12 31.69   -17 12.3    0.565    1.516   147.5    20.9    19.2
2006 05 15    12 24.87   -15 16.4    0.534    1.446   136.6    28.7    19.2
2006 05 25    12 23.34   -13 25.2    0.514    1.381   126.5    36.1    19.2
2006 06 04    12 28.04   -11 52.6    0.498    1.321   117.7    42.8    19.3
2006 06 14    12 39.32   -10 46.0    0.484    1.268   110.4    48.6    19.3
2006 06 24    12 57.18   -10 06.4    0.470    1.224   104.7    53.4    19.3
2006 07 04    13 21.73   -09 52.2    0.456    1.189   100.7    57.1    19.2
2006 07 14    13 53.03   -09 58.5    0.442    1.166    98.4    59.5    19.2
2006 07 24    14 30.99   -10 18.1    0.432    1.156    97.8    60.5    19.2
2006 08 03    15 15.20   -10 43.0    0.428    1.160    98.8    59.9    19.1
2006 08 13    16 04.19   -11 02.6    0.434    1.176   101.0    57.7    19.1
2006 08 23    16 55.40   -11 08.6    0.455    1.205   103.9    54.6    19.2
2006 09 02    17 45.90   -10 56.9    0.493    1.244   106.7    51.0    19.3
2006 09 12    18 33.12   -10 27.9    0.550    1.293   108.8    47.4    19.5
2006 09 22    19 15.73   -09 45.6    0.624    1.350   109.8    44.4    19.8
2006 10 02    19 53.60   -08 53.5    0.715    1.413   109.7    41.9    20.2
2006 10 12    20 27.16   -07 53.9    0.822    1.480   108.4    39.8    20.5
2006 10 22    20 57.12   -06 48.3    0.944    1.551   106.1    38.1    20.9
2006 11 01    21 24.22   -05 37.1    1.079    1.624   103.1    36.5    21.2
2006 11 11    21 49.05   -04 21.0    1.226    1.699    99.5    35.1    21.5
2006 11 21    22 12.08   -03 00.6    1.384    1.774    95.4    33.7    21.9

Gareth V. Williams           (C) Copyright 2006 MPC           M.P.E.C. 2006-J02

Read MPEC 2006-J01 Read MPEC 2006-J03


MPEC number:

Enter an MPEC number in one of the following forms:

  • 1997-B01 (the full form)
  • J97B01 (the packed version of the full form)
  • B01 (the abbreviated form)

Valid HTML 4.01!